contact:dominique.lefevre@mio.osupytheas.fr, maurice.libes@osupytheas.fr, didier.mallarino@osupytheas.fr
Project:EMSO http://www.emso-fr.org/EMSO-France
Depth: 2436.0 m
Title:EMSO Ligure Ouest : Data MII capteur AQUADOPP
Date,Latitude,Longitude,X_East,Y_North,Z_Up,Amplitude_X,Amplitude_Y,Amplitude_Z,Batterie,SoundSpeed,Heading,Pitch,Roll,Pressure,TIS,Speed,Direction
, degrees North, degrees East, m.s-1, m.s-1,m.s-1, 1, 1, 1, Volt, m.s-1, degree, degree, degree, dbar, degree_C, m.s-1, degree
2022-08-27T00:04:03,42.805,6.029,-0.004,0.008,-0.036,102.0,102.0,101.0,13.4,1505.2,332.2,-0.7,1.8,2470.969,13.29,0.008,333.4
2022-08-27T00:07:03,42.805,6.029,0.006,-0.011,-0.041,102.0,102.0,101.0,13.4,1505.2,330.6,-0.7,1.9,2470.946,13.29,0.012,151.4
2022-08-27T00:10:03,42.805,6.029,-0.018,0.002,-0.043,102.0,102.0,103.0,13.4,1505.2,331.0,-0.7,1.8,2470.948,13.29,0.018,276.3
2022-08-27T00:13:03,42.805,6.029,0.023,-0.002,-0.005,100.0,104.0,102.0,13.4,1505.2,332.5,-0.8,1.8,2470.947,13.29,0.023,95.0
2022-08-27T00:16:03,42.805,6.029,-0.026,0.02,0.028,102.0,103.0,101.0,13.4,1505.2,327.5,-0.7,1.8,2470.908,13.29,0.032,307.6
2022-08-27T00:19:03,42.805,6.029,-0.015,0.023,0.02,103.0,102.0,100.0,13.3,1505.2,323.1,-0.7,1.8,2470.947,13.29,0.027,326.9
2022-08-27T00:22:03,42.805,6.029,0.028,0.0,0.004,102.0,102.0,101.0,13.3,1505.2,327.1,-0.7,1.8,2470.904,13.3,0.028,90.0
2022-08-27T00:25:03,42.805,6.029,-0.002,0.016,0.015,102.0,103.0,101.0,13.4,1505.2,330.8,-0.8,1.8,2470.945,13.3,0.016,352.9
2022-08-27T00:28:03,42.805,6.029,-0.006,0.008,-0.013,102.0,102.0,100.0,13.3,1505.2,325.0,-0.8,1.8,2470.889,13.3,0.01,323.1
2022-08-27T00:31:03,42.805,6.029,0.026,0.002,0.0,102.0,102.0,101.0,13.4,1505.2,333.1,-0.7,1.8,2470.928,13.3,0.026,85.6
2022-08-27T00:34:03,42.805,6.029,-0.017,0.003,-0.024,102.0,102.0,100.0,13.4,1505.2,332.2,-0.7,1.8,2470.954,13.3,0.017,280.0
2022-08-27T00:37:03,42.805,6.029,0.006,0.001,-0.026,102.0,103.0,102.0,13.3,1505.2,330.1,-0.8,1.8,2470.905,13.3,0.006,80.5
2022-08-27T00:40:03,42.805,6.029,-0.01,0.004,0.0,104.0,102.0,100.0,13.3,1505.2,317.9,-0.7,1.8,2470.892,13.3,0.01,291.8
2022-08-27T00:43:03,42.805,6.029,0.006,0.016,0.019,102.0,101.0,101.0,13.3,1505.2,331.1,-0.8,1.8,2470.906,13.3,0.017,20.6
2022-08-27T00:46:03,42.805,6.029,-0.021,0.006,0.023,102.0,101.0,101.0,13.4,1505.2,333.7,-0.7,1.8,2470.874,13.3,0.021,285.9
2022-08-27T00:49:03,42.805,6.029,-0.007,0.018,-0.019,102.0,101.0,101.0,13.4,1505.2,325.9,-0.8,1.9,2470.924,13.3,0.019,338.8
2022-08-27T00:52:03,42.805,6.029,-0.022,0.023,-0.019,102.0,101.0,102.0,13.3,1505.2,318.3,-0.7,1.8,2470.891,13.3,0.031,316.3
2022-08-27T00:55:03,42.805,6.029,-0.003,0.013,-0.016,102.0,102.0,100.0,13.4,1505.2,321.2,-0.8,1.8,2470.931,13.3,0.013,347.0
2022-08-27T00:58:03,42.805,6.029,0.01,0.01,0.007,102.0,102.0,101.0,13.4,1505.2,322.5,-0.7,1.8,2470.858,13.3,0.014,45.0
2022-08-27T01:04:03,42.805,6.029,-0.02,0.018,0.008,104.0,103.0,102.0,13.3,1505.2,325.6,-0.8,1.8,2470.944,13.29,0.026,312.0
2022-08-27T01:07:03,42.805,6.029,-0.032,0.003,-0.023,104.0,103.0,101.0,13.4,1505.2,322.3,-0.7,1.8,2470.914,13.29,0.032,275.4
2022-08-27T01:10:03,42.805,6.029,-0.02,0.018,-0.018,102.0,102.0,101.0,13.4,1505.2,323.9,-0.7,1.8,2470.931,13.29,0.026,312.0
2022-08-27T01:13:03,42.805,6.029,0.0,0.017,0.017,102.0,102.0,100.0,13.3,1505.2,328.5,-0.8,1.8,2470.909,13.29,0.017,0.0
2022-08-27T01:16:03,42.805,6.029,0.008,0.003,0.007,102.0,101.0,101.0,13.4,1505.2,324.5,-0.8,1.8,2470.912,13.29,0.008,69.4
2022-08-27T01:19:03,42.805,6.029,-0.002,0.0,-0.011,101.0,103.0,100.0,13.4,1505.2,323.6,-0.8,1.8,2470.903,13.29,0.002,270.0
2022-08-27T01:22:03,42.805,6.029,0.014,-0.011,-0.004,102.0,101.0,101.0,13.3,1505.2,323.6,-0.8,1.8,2470.895,13.3,0.017,128.2
2022-08-27T01:25:03,42.805,6.029,-0.014,0.011,-0.03,103.0,102.0,100.0,13.4,1505.2,331.4,-0.8,1.9,2470.889,13.29,0.017,308.2
2022-08-27T01:28:03,42.805,6.029,-0.017,-0.003,-0.023,104.0,101.0,100.0,13.3,1505.2,323.6,-0.8,1.9,2470.874,13.29,0.017,260.0
2022-08-27T01:31:03,42.805,6.029,-0.015,0.019,-0.013,101.0,102.0,101.0,13.3,1505.2,318.7,-0.7,1.8,2470.875,13.29,0.024,321.7
2022-08-27T01:34:03,42.805,6.029,0.002,0.016,-0.015,103.0,102.0,100.0,13.3,1505.2,325.6,-0.8,1.8,2470.876,13.29,0.016,7.1
2022-08-27T01:37:03,42.805,6.029,-0.018,0.013,-0.001,101.0,102.0,101.0,13.3,1505.2,319.5,-0.8,1.8,2470.853,13.29,0.022,305.8
2022-08-27T01:40:03,42.805,6.029,0.003,0.023,0.014,102.0,101.0,101.0,13.3,1505.2,331.1,-0.8,1.8,2470.849,13.29,0.023,7.4
2022-08-27T01:43:03,42.805,6.029,0.006,0.01,0.013,102.0,102.0,101.0,13.4,1505.2,319.5,-0.7,1.8,2470.884,13.29,0.011,31.0
2022-08-27T01:46:03,42.805,6.029,0.017,0.0,-0.021,101.0,103.0,100.0,13.4,1505.2,317.3,-0.8,1.8,2470.857,13.29,0.017,90.0
2022-08-27T01:49:03,42.805,6.029,-0.021,0.016,0.012,101.0,102.0,101.0,13.3,1505.2,318.0,-0.8,1.8,2470.886,13.29,0.026,307.3
2022-08-27T01:52:03,42.805,6.029,-0.014,0.005,0.0,101.0,102.0,101.0,13.4,1505.2,319.4,-0.8,1.8,2470.878,13.29,0.014,289.6
2022-08-27T01:55:03,42.805,6.029,-0.012,-0.002,-0.028,101.0,102.0,100.0,13.4,1505.2,327.8,-0.8,1.8,2470.897,13.29,0.012,260.5
2022-08-27T01:58:03,42.805,6.029,-0.006,-0.006,-0.039,102.0,102.0,101.0,13.4,1505.2,328.1,-0.7,1.8,2470.887,13.29,0.008,225.0
2022-08-27T02:04:03,42.805,6.029,-0.024,0.013,0.013,101.0,101.0,101.0,13.4,1505.2,323.3,-0.8,1.8,2470.932,13.29,0.027,298.4
2022-08-27T02:07:03,42.805,6.029,-0.001,0.004,-0.004,101.0,102.0,100.0,13.4,1505.2,327.9,-0.8,1.8,2470.93,13.29,0.004,346.0
2022-08-27T02:10:03,42.805,6.029,0.019,0.016,0.013,102.0,101.0,100.0,13.3,1505.2,329.2,-0.8,1.8,2470.891,13.29,0.024,49.9
2022-08-27T02:13:03,42.805,6.029,0.0,0.008,0.007,103.0,102.0,101.0,13.4,1505.2,321.7,-0.8,1.8,2470.883,13.29,0.008,0.0
2022-08-27T02:16:03,42.805,6.029,0.011,-0.008,-0.012,102.0,104.0,100.0,13.4,1505.2,323.1,-0.8,1.8,2470.864,13.29,0.013,126.0
2022-08-27T02:19:03,42.805,6.029,-0.002,0.017,-0.037,101.0,102.0,102.0,13.3,1505.2,321.3,-0.8,1.8,2470.882,13.29,0.017,353.3
2022-08-27T02:22:03,42.805,6.029,0.006,0.007,0.006,101.0,102.0,101.0,13.4,1505.2,328.1,-0.7,1.8,2470.887,13.29,0.009,40.6
2022-08-27T02:25:03,42.805,6.029,0.0,0.004,-0.013,101.0,102.0,101.0,13.3,1505.2,329.5,-0.8,1.8,2470.852,13.29,0.004,0.0
2022-08-27T02:28:03,42.805,6.029,-0.006,0.016,-0.042,102.0,102.0,101.0,13.4,1505.2,328.6,-0.7,1.8,2470.851,13.29,0.017,339.4
2022-08-27T02:31:03,42.805,6.029,-0.02,0.025,0.001,103.0,101.0,100.0,13.3,1505.2,321.9,-0.8,1.8,2470.913,13.29,0.032,321.3
2022-08-27T02:34:03,42.805,6.029,-0.016,-0.006,-0.015,101.0,102.0,102.0,13.4,1505.2,334.2,-0.8,1.8,2470.906,13.29,0.017,249.4
2022-08-27T02:37:03,42.805,6.029,0.009,0.009,0.003,102.0,103.0,100.0,13.3,1505.2,319.2,-0.8,1.8,2470.86,13.29,0.012,45.0
2022-08-27T02:40:03,42.805,6.029,0.015,0.0,-0.003,101.0,102.0,100.0,13.3,1505.2,321.1,-0.7,1.9,2470.87,13.29,0.015,90.0
2022-08-27T02:43:03,42.805,6.029,-0.009,0.001,0.0,102.0,102.0,101.0,13.3,1505.2,329.8,-0.8,1.8,2470.864,13.29,0.009,276.3
2022-08-27T02:46:03,42.805,6.029,-0.001,-0.004,-0.016,101.0,103.0,100.0,13.4,1505.2,320.2,-0.8,1.8,2470.88,13.29,0.004,194.0
2022-08-27T02:49:03,42.805,6.029,-0.011,-0.014,-0.031,101.0,103.0,101.0,13.4,1505.2,322.2,-0.7,1.8,2470.932,13.29,0.017,218.2
2022-08-27T02:52:03,42.805,6.029,0.011,0.02,0.011,103.0,100.0,100.0,13.4,1505.2,328.3,-0.8,1.8,2470.86,13.29,0.022,28.8
2022-08-27T02:55:03,42.805,6.029,0.006,0.001,-0.017,103.0,103.0,100.0,13.4,1505.2,319.5,-0.8,1.8,2470.896,13.29,0.006,80.5
2022-08-27T02:58:03,42.805,6.029,-0.019,0.006,-0.001,102.0,101.0,100.0,13.3,1505.2,323.8,-0.8,1.8,2470.889,13.29,0.019,287.5
2022-08-27T03:04:03,42.805,6.029,-0.004,0.013,-0.012,102.0,101.0,101.0,13.4,1505.2,321.8,-0.8,1.8,2470.944,13.29,0.013,342.9
2022-08-27T03:07:03,42.805,6.029,-0.007,0.021,0.009,101.0,101.0,101.0,13.4,1505.2,318.7,-0.7,1.8,2470.911,13.29,0.022,341.6
2022-08-27T03:10:03,42.805,6.029,0.007,0.011,-0.029,101.0,102.0,100.0,13.3,1505.2,327.1,-0.7,1.8,2470.957,13.29,0.013,32.5
2022-08-27T03:13:03,42.805,6.029,-0.021,0.019,-0.019,103.0,101.0,101.0,13.4,1505.2,333.4,-0.8,1.8,2470.897,13.29,0.028,312.1
2022-08-27T03:16:03,42.805,6.029,-0.004,0.012,0.0,103.0,102.0,100.0,13.4,1505.2,322.8,-0.8,1.8,2470.915,13.29,0.012,341.6
2022-08-27T03:19:03,42.805,6.029,0.014,0.024,0.001,101.0,104.0,100.0,13.4,1505.2,330.3,-0.8,1.8,2470.917,13.29,0.027,30.3
2022-08-27T03:22:03,42.805,6.029,-0.015,0.025,0.03,102.0,101.0,100.0,13.3,1505.2,332.3,-0.7,1.8,2470.889,13.29,0.029,329.0
2022-08-27T03:25:03,42.805,6.029,0.0,0.012,-0.004,103.0,103.0,100.0,13.3,1505.2,330.6,-0.8,1.8,2470.923,13.29,0.012,0.0
2022-08-27T03:28:03,42.805,6.029,-0.018,0.017,-0.005,102.0,103.0,100.0,13.3,1505.2,328.9,-0.8,1.8,2470.88,13.29,0.024,313.4
2022-08-27T03:31:03,42.805,6.029,-0.017,-0.002,-0.007,102.0,103.0,100.0,13.3,1505.2,324.9,-0.8,1.8,2470.892,13.29,0.017,263.3
2022-08-27T03:34:03,42.805,6.029,-0.006,0.018,-0.012,101.0,102.0,100.0,13.3,1505.2,320.7,-0.8,1.8,2470.883,13.29,0.018,341.6
2022-08-27T03:37:03,42.805,6.029,-0.003,-0.003,-0.011,102.0,102.0,100.0,13.4,1505.2,331.3,-0.8,1.8,2470.905,13.29,0.004,225.0
2022-08-27T03:40:03,42.805,6.029,0.024,-0.007,0.003,101.0,102.0,100.0,13.4,1505.2,321.2,-0.8,1.8,2470.907,13.29,0.025,106.3
2022-08-27T03:43:03,42.805,6.029,-0.008,0.016,-0.011,102.0,103.0,99.0,13.4,1505.2,319.8,-0.8,1.8,2470.892,13.29,0.017,333.4
2022-08-27T03:46:03,42.805,6.029,-0.015,-0.001,-0.005,101.0,102.0,100.0,13.3,1505.2,322.4,-0.7,1.8,2470.901,13.29,0.015,266.2
2022-08-27T03:49:03,42.805,6.029,0.0,0.019,0.002,102.0,103.0,100.0,13.3,1505.2,319.5,-0.7,1.8,2470.899,13.29,0.019,0.0
2022-08-27T03:52:03,42.805,6.029,0.011,0.012,-0.012,101.0,102.0,101.0,13.4,1505.2,320.9,-0.8,1.8,2470.875,13.29,0.016,42.5
2022-08-27T03:55:03,42.805,6.029,0.016,0.005,0.003,101.0,104.0,100.0,13.4,1505.2,331.6,-0.8,1.8,2470.965,13.29,0.016,72.6
2022-08-27T03:58:03,42.805,6.029,-0.001,0.007,0.005,101.0,101.0,102.0,13.3,1505.2,319.5,-0.7,1.8,2470.918,13.29,0.007,351.9
2022-08-27T04:04:03,42.805,6.029,-0.023,-0.006,-0.005,102.0,102.0,100.0,13.4,1505.2,327.1,-0.7,1.8,2470.94,13.29,0.023,255.4
2022-08-27T04:07:03,42.805,6.029,-0.002,0.0,0.004,103.0,102.0,101.0,13.4,1505.2,319.0,-0.7,1.8,2470.92,13.29,0.002,270.0
2022-08-27T04:10:03,42.805,6.029,-0.007,0.014,-0.015,103.0,102.0,101.0,13.4,1505.2,329.5,-0.8,1.8,2470.922,13.29,0.015,333.4
2022-08-27T04:13:03,42.805,6.029,0.0,0.008,-0.04,102.0,101.0,101.0,13.4,1505.2,327.9,-0.8,1.8,2470.936,13.29,0.008,0.0
2022-08-27T04:16:03,42.805,6.029,0.014,0.014,-0.017,103.0,102.0,100.0,13.3,1505.2,325.2,-0.7,1.8,2470.959,13.29,0.019,45.0
2022-08-27T04:19:03,42.805,6.029,-0.003,0.0,0.004,102.0,102.0,101.0,13.3,1505.2,323.9,-0.8,1.8,2470.867,13.29,0.003,270.0
2022-08-27T04:22:03,42.805,6.029,0.009,0.002,0.044,102.0,101.0,101.0,13.3,1505.2,328.3,-0.8,1.8,2470.927,13.29,0.009,77.5
2022-08-27T04:25:03,42.805,6.029,-0.001,0.0,-0.003,101.0,103.0,100.0,13.4,1505.2,333.4,-0.7,1.8,2470.933,13.29,0.001,270.0
2022-08-27T04:28:03,42.805,6.029,-0.007,0.002,-0.014,102.0,102.0,101.0,13.3,1505.2,329.6,-0.7,1.9,2470.953,13.29,0.007,285.9
2022-08-27T04:31:03,42.805,6.029,0.018,0.003,0.015,102.0,102.0,101.0,13.3,1505.2,328.9,-0.7,1.8,2470.946,13.29,0.018,80.5
2022-08-27T04:34:03,42.805,6.029,-0.006,-0.003,-0.008,103.0,102.0,101.0,13.3,1505.2,327.3,-0.7,1.8,2470.946,13.29,0.006,243.4
2022-08-27T04:37:03,42.805,6.029,0.012,0.003,0.017,102.0,103.0,101.0,13.4,1505.2,333.6,-0.8,1.8,2470.953,13.29,0.012,76.0
2022-08-27T04:40:03,42.805,6.029,0.026,-0.005,0.0,102.0,102.0,100.0,13.3,1505.2,319.1,-0.8,1.8,2470.959,13.29,0.026,100.9
2022-08-27T04:43:03,42.805,6.029,0.024,-0.003,0.0,102.0,102.0,100.0,13.3,1505.2,317.9,-0.8,1.8,2470.955,13.29,0.024,97.1
2022-08-27T04:46:03,42.805,6.029,-0.017,0.008,-0.03,102.0,102.0,101.0,13.4,1505.2,320.9,-0.7,1.8,2470.929,13.29,0.018,295.2
2022-08-27T04:49:03,42.805,6.029,0.007,0.017,0.014,100.0,102.0,101.0,13.4,1505.2,322.5,-0.8,1.8,2470.973,13.29,0.018,22.4
2022-08-27T04:52:03,42.805,6.029,0.008,0.009,-0.006,101.0,102.0,102.0,13.4,1505.2,319.5,-0.8,1.8,2470.952,13.29,0.012,41.6
2022-08-27T04:55:03,42.805,6.029,0.023,0.028,0.04,102.0,101.0,102.0,13.4,1505.2,328.2,-0.7,1.8,2470.935,13.29,0.036,39.4
2022-08-27T04:58:03,42.805,6.029,-0.011,0.017,-0.012,102.0,102.0,99.0,13.4,1505.2,327.4,-0.8,1.8,2470.974,13.29,0.02,327.1
2022-08-27T05:04:03,42.805,6.029,-0.021,0.019,-0.043,101.0,102.0,100.0,13.3,1505.2,329.4,-0.7,1.8,2470.981,13.29,0.028,312.1
2022-08-27T05:07:03,42.805,6.029,-0.019,0.013,-0.013,102.0,102.0,101.0,13.4,1505.2,320.1,-0.7,1.8,2471.002,13.29,0.023,304.4
2022-08-27T05:10:03,42.805,6.029,-0.017,0.002,-0.042,101.0,101.0,100.0,13.4,1505.2,326.3,-0.8,1.8,2470.977,13.29,0.017,276.7
2022-08-27T05:13:03,42.805,6.029,0.002,0.009,-0.012,101.0,101.0,101.0,13.4,1505.2,323.2,-0.8,1.8,2470.993,13.29,0.009,12.5
2022-08-27T05:16:03,42.805,6.029,-0.013,0.0,-0.013,102.0,101.0,104.0,13.3,1505.2,323.1,-0.7,1.8,2470.951,13.29,0.013,270.0
2022-08-27T05:19:03,42.805,6.029,-0.008,0.004,-0.014,100.0,102.0,101.0,13.3,1505.2,323.6,-0.8,1.8,2470.966,13.29,0.008,296.6
2022-08-27T05:22:03,42.805,6.029,0.035,-0.007,-0.036,102.0,101.0,100.0,13.4,1505.2,326.1,-0.8,1.8,2470.95,13.29,0.035,101.3
2022-08-27T05:25:03,42.805,6.029,-0.006,0.014,-0.007,102.0,102.0,100.0,13.4,1505.2,334.5,-0.8,1.8,2470.985,13.29,0.015,336.8
2022-08-27T05:28:03,42.805,6.029,-0.016,0.003,-0.016,102.0,102.0,101.0,13.3,1505.2,324.1,-0.8,1.8,2471.013,13.29,0.016,280.6
2022-08-27T05:31:03,42.805,6.029,-0.006,0.009,0.012,101.0,102.0,101.0,13.3,1505.2,332.8,-0.7,1.8,2470.969,13.29,0.01,326.3
2022-08-27T05:34:03,42.805,6.029,0.009,0.028,-0.017,102.0,102.0,101.0,13.3,1505.2,322.4,-0.7,1.8,2470.987,13.29,0.029,17.8
2022-08-27T05:37:03,42.805,6.029,0.0,0.012,-0.018,101.0,101.0,101.0,13.3,1505.2,332.2,-0.8,1.8,2470.996,13.29,0.012,0.0
2022-08-27T05:40:03,42.805,6.029,0.006,-0.01,-0.008,102.0,101.0,100.0,13.4,1505.2,332.9,-0.8,1.8,2470.974,13.29,0.011,149.0
2022-08-27T05:43:03,42.805,6.029,-0.025,0.022,-0.009,102.0,102.0,101.0,13.4,1505.2,332.8,-0.7,1.8,2471.034,13.29,0.033,311.3
2022-08-27T05:46:03,42.805,6.029,0.01,-0.003,-0.002,103.0,102.0,100.0,13.3,1505.2,331.1,-0.8,1.8,2470.996,13.29,0.01,106.7
2022-08-27T05:49:03,42.805,6.029,-0.023,-0.002,-0.015,102.0,105.0,101.0,13.4,1505.2,324.9,-0.7,1.8,2470.955,13.29,0.023,265.0
2022-08-27T05:52:03,42.805,6.029,-0.009,-0.003,-0.032,102.0,102.0,100.0,13.4,1505.2,326.8,-0.8,1.8,2470.956,13.29,0.009,251.6
2022-08-27T05:55:03,42.805,6.029,0.016,0.003,0.016,101.0,100.0,100.0,13.4,1505.2,334.5,-0.8,1.8,2470.998,13.29,0.016,79.4
2022-08-27T05:58:03,42.805,6.029,0.006,-0.005,-0.005,102.0,102.0,100.0,13.4,1505.2,318.6,-0.8,1.8,2470.986,13.29,0.007,129.8
2022-08-27T06:04:03,42.805,6.029,-0.02,0.016,0.019,102.0,102.0,101.0,13.4,1505.2,325.4,-0.8,1.8,2471.037,13.29,0.025,308.7
2022-08-27T06:07:03,42.805,6.029,0.007,0.006,0.008,102.0,102.0,101.0,13.4,1505.2,324.9,-0.7,1.8,2471.011,13.29,0.009,49.4
2022-08-27T06:10:03,42.805,6.029,-0.012,0.015,-0.003,102.0,101.0,101.0,13.3,1505.2,317.3,-0.8,1.8,2471.03,13.29,0.019,321.3
2022-08-27T06:13:03,42.805,6.029,0.002,0.002,0.007,102.0,101.0,100.0,13.4,1505.2,321.0,-0.7,1.8,2471.028,13.29,0.002,45.0
2022-08-27T06:16:03,42.805,6.029,0.002,0.024,0.012,102.0,104.0,101.0,13.4,1505.2,321.7,-0.8,1.8,2471.016,13.29,0.024,4.8
2022-08-27T06:19:03,42.805,6.029,0.001,0.024,0.004,103.0,102.0,101.0,13.3,1505.2,322.3,-0.8,1.8,2470.976,13.29,0.024,2.4
2022-08-27T06:22:03,42.805,6.029,0.008,0.003,-0.008,102.0,102.0,100.0,13.3,1505.2,326.7,-0.8,1.8,2470.982,13.29,0.008,69.4
2022-08-27T06:25:03,42.805,6.029,0.015,0.0,-0.007,102.0,102.0,101.0,13.4,1505.2,329.4,-0.7,1.8,2471.044,13.29,0.015,90.0
2022-08-27T06:28:03,42.805,6.029,0.0,0.01,-0.037,102.0,101.0,101.0,13.4,1505.2,330.2,-0.8,1.8,2470.987,13.29,0.01,0.0
2022-08-27T06:31:03,42.805,6.029,-0.007,0.009,0.006,103.0,102.0,102.0,13.4,1505.2,326.0,-0.8,1.9,2470.997,13.29,0.011,322.1
2022-08-27T06:34:03,42.805,6.029,0.007,0.003,0.001,102.0,103.0,101.0,13.4,1505.2,318.8,-0.8,1.8,2471.021,13.29,0.007,66.8
2022-08-27T06:37:03,42.805,6.029,-0.012,0.006,-0.017,101.0,104.0,101.0,13.3,1505.2,324.7,-0.7,1.8,2470.977,13.29,0.013,296.6
2022-08-27T06:40:03,42.805,6.029,-0.014,0.026,0.021,102.0,101.0,101.0,13.4,1505.2,332.0,-0.8,1.8,2471.011,13.29,0.029,331.7
2022-08-27T06:43:03,42.805,6.029,0.014,0.002,0.041,103.0,102.0,102.0,13.3,1505.2,328.5,-0.8,1.8,2470.982,13.29,0.014,81.9
2022-08-27T06:46:03,42.805,6.029,0.007,0.0,-0.044,101.0,102.0,102.0,13.3,1505.2,318.4,-0.8,1.8,2470.998,13.29,0.007,90.0
2022-08-27T06:49:03,42.805,6.029,0.002,-0.002,-0.035,101.0,102.0,101.0,13.4,1505.2,321.9,-0.7,1.8,2471.033,13.29,0.002,135.0
2022-08-27T06:52:03,42.805,6.029,0.0,0.009,0.004,104.0,102.0,101.0,13.4,1505.2,333.1,-0.7,1.8,2471.015,13.29,0.009,0.0
2022-08-27T06:55:03,42.805,6.029,0.007,0.005,-0.013,102.0,103.0,101.0,13.3,1505.2,329.3,-0.8,1.8,2471.035,13.29,0.008,54.5
2022-08-27T06:58:03,42.805,6.029,0.018,-0.008,-0.028,103.0,102.0,100.0,13.4,1505.2,332.6,-0.7,1.8,2470.976,13.29,0.019,114.0
2022-08-27T07:04:03,42.805,6.029,-0.011,0.013,-0.008,102.0,103.0,102.0,13.4,1505.2,320.9,-0.8,1.8,2471.055,13.29,0.017,319.8
2022-08-27T07:07:03,42.805,6.029,0.018,0.011,-0.022,102.0,104.0,102.0,13.4,1505.2,324.7,-0.8,1.8,2471.081,13.29,0.021,58.6
2022-08-27T07:10:03,42.805,6.029,0.01,-0.009,-0.01,102.0,103.0,101.0,13.4,1505.2,321.0,-0.8,1.8,2471.061,13.29,0.013,132.0
2022-08-27T07:13:03,42.805,6.029,0.004,-0.002,-0.019,103.0,103.0,99.0,13.4,1505.2,328.2,-0.8,1.8,2471.042,13.29,0.004,116.6
2022-08-27T07:16:03,42.805,6.029,0.012,-0.005,-0.034,102.0,102.0,101.0,13.4,1505.2,317.6,-0.8,1.8,2471.008,13.29,0.013,112.6
2022-08-27T07:19:03,42.805,6.029,0.002,0.006,-0.015,101.0,102.0,101.0,13.4,1505.2,334.2,-0.8,1.8,2471.011,13.29,0.006,18.4
2022-08-27T07:22:03,42.805,6.029,-0.009,-0.004,-0.008,101.0,103.0,101.0,13.3,1505.2,322.0,-0.8,1.8,2471.031,13.29,0.009,246.0
2022-08-27T07:25:03,42.805,6.029,0.018,0.012,-0.015,103.0,103.0,101.0,13.3,1505.2,329.6,-0.7,1.8,2471.044,13.29,0.021,56.3
2022-08-27T07:28:03,42.805,6.029,0.006,-0.001,-0.008,101.0,104.0,101.0,13.4,1505.2,326.7,-0.8,1.8,2471.049,13.29,0.006,99.5
2022-08-27T07:31:03,42.805,6.029,0.022,0.005,0.011,103.0,102.0,101.0,13.4,1505.2,329.7,-0.7,1.8,2470.997,13.29,0.022,77.2
2022-08-27T07:34:03,42.805,6.029,-0.02,0.003,0.0,101.0,102.0,101.0,13.3,1505.2,323.8,-0.8,1.8,2470.984,13.29,0.02,278.5
2022-08-27T07:37:03,42.805,6.029,0.001,-0.012,-0.024,102.0,102.0,100.0,13.4,1505.2,322.2,-0.8,1.8,2470.955,13.29,0.012,175.2
2022-08-27T07:40:03,42.805,6.029,0.017,0.006,0.0,102.0,102.0,101.0,13.4,1505.2,332.2,-0.8,1.8,2471.007,13.29,0.018,70.6
2022-08-27T07:43:03,42.805,6.029,0.0,0.019,0.011,102.0,101.0,100.0,13.3,1505.2,319.8,-0.8,1.8,2470.996,13.29,0.019,0.0
2022-08-27T07:46:03,42.805,6.029,0.003,0.008,-0.013,102.0,101.0,101.0,13.3,1505.2,332.0,-0.8,1.8,2471.001,13.29,0.008,20.6
2022-08-27T07:49:03,42.805,6.029,-0.016,0.012,-0.031,103.0,102.0,100.0,13.4,1505.2,331.0,-0.8,1.8,2471.004,13.29,0.02,306.9
2022-08-27T07:52:03,42.805,6.029,0.013,0.02,0.0,102.0,103.0,101.0,13.3,1505.2,327.8,-0.8,1.8,2470.976,13.29,0.023,33.0
2022-08-27T07:55:03,42.805,6.029,0.0,-0.005,-0.026,102.0,103.0,100.0,13.4,1505.2,332.0,-0.8,1.8,2470.969,13.29,0.005,180.0
2022-08-27T07:58:03,42.805,6.029,-0.011,-0.003,-0.009,103.0,101.0,100.0,13.4,1505.2,326.1,-0.8,1.8,2470.986,13.29,0.011,254.7
2022-08-27T08:04:03,42.805,6.029,-0.004,-0.001,-0.014,103.0,104.0,101.0,13.4,1505.2,322.3,-0.8,1.8,2471.037,13.29,0.004,256.0
2022-08-27T08:07:03,42.805,6.029,0.015,0.007,0.0,102.0,103.0,99.0,13.4,1505.2,319.4,-0.8,1.8,2471.022,13.29,0.016,65.0
2022-08-27T08:10:03,42.805,6.029,0.001,0.016,0.013,103.0,102.0,101.0,13.4,1505.2,322.0,-0.8,1.8,2471.0,13.29,0.016,3.6
2022-08-27T08:13:03,42.805,6.029,0.002,0.013,-0.011,102.0,106.0,100.0,13.4,1505.2,318.7,-0.7,1.8,2471.018,13.29,0.013,8.7
2022-08-27T08:16:03,42.805,6.029,-0.019,0.004,-0.02,102.0,102.0,101.0,13.4,1505.2,332.8,-0.8,1.9,2470.987,13.29,0.019,281.9
2022-08-27T08:19:03,42.805,6.029,-0.009,0.001,-0.032,103.0,102.0,100.0,13.4,1505.2,326.0,-0.7,1.8,2471.009,13.29,0.009,276.3
2022-08-27T08:22:03,42.805,6.029,0.005,0.007,0.014,102.0,102.0,101.0,13.4,1505.2,319.9,-0.8,1.8,2470.984,13.29,0.008,35.5
2022-08-27T08:25:03,42.805,6.029,-0.009,0.003,-0.026,102.0,103.0,99.0,13.4,1505.2,328.0,-0.7,1.8,2471.017,13.29,0.009,288.4
2022-08-27T08:28:03,42.805,6.029,-0.02,0.0,-0.003,102.0,103.0,100.0,13.4,1505.2,319.9,-0.7,1.8,2470.989,13.29,0.02,270.0
2022-08-27T08:31:03,42.805,6.029,-0.008,0.011,-0.011,102.0,102.0,100.0,13.4,1505.2,327.0,-0.8,1.8,2470.971,13.29,0.013,324.0
2022-08-27T08:34:03,42.805,6.029,-0.001,-0.014,-0.003,103.0,103.0,101.0,13.4,1505.2,327.9,-0.8,1.8,2470.981,13.29,0.014,184.1
2022-08-27T08:37:03,42.805,6.029,0.005,0.018,-0.008,102.0,101.0,100.0,13.3,1505.2,324.7,-0.8,1.8,2470.95,13.29,0.018,15.5
2022-08-27T08:40:03,42.805,6.029,0.018,0.0,-0.002,101.0,104.0,101.0,13.4,1505.2,326.3,-0.7,1.8,2470.965,13.29,0.018,90.0
2022-08-27T08:43:03,42.805,6.029,-0.003,-0.01,0.011,102.0,103.0,100.0,13.3,1505.2,327.0,-0.7,1.8,2470.987,13.29,0.01,196.7
2022-08-27T08:46:03,42.805,6.029,0.003,0.01,0.0,101.0,102.0,101.0,13.4,1505.2,322.2,-0.8,1.8,2471.024,13.29,0.01,16.7
2022-08-27T08:49:03,42.805,6.029,-0.009,-0.002,-0.021,103.0,101.0,101.0,13.4,1505.2,327.3,-0.8,1.8,2471.008,13.29,0.009,257.5
2022-08-27T08:52:03,42.805,6.029,-0.018,0.027,-0.006,102.0,102.0,100.0,13.4,1505.2,319.4,-0.8,1.8,2471.0,13.29,0.032,326.3
2022-08-27T08:55:03,42.805,6.029,0.007,0.0,-0.019,103.0,102.0,101.0,13.3,1505.2,323.0,-0.7,1.8,2470.946,13.29,0.007,90.0
2022-08-27T08:58:03,42.805,6.029,-0.004,0.007,-0.009,102.0,102.0,100.0,13.4,1505.2,324.6,-0.8,1.8,2470.975,13.29,0.008,330.3
2022-08-27T09:04:03,42.805,6.029,0.002,-0.011,-0.026,102.0,101.0,100.0,13.3,1505.2,323.1,-0.7,1.8,2471.049,13.29,0.011,169.7
2022-08-27T09:07:03,42.805,6.029,0.016,-0.002,-0.003,102.0,103.0,101.0,13.4,1505.2,323.2,-0.7,1.8,2470.989,13.29,0.016,97.1
2022-08-27T09:10:03,42.805,6.029,-0.01,0.002,-0.02,102.0,102.0,101.0,13.3,1505.2,333.4,-0.7,1.9,2470.962,13.29,0.01,281.3
2022-08-27T09:13:03,42.805,6.029,-0.011,0.002,-0.003,102.0,102.0,100.0,13.4,1505.2,333.9,-0.8,1.8,2470.963,13.29,0.011,280.3
2022-08-27T09:16:03,42.805,6.029,0.003,0.01,-0.011,105.0,101.0,101.0,13.4,1505.2,320.6,-0.7,1.8,2470.976,13.29,0.01,16.7
2022-08-27T09:19:03,42.805,6.029,0.02,-0.01,-0.018,102.0,103.0,101.0,13.4,1505.2,327.9,-0.7,1.8,2470.937,13.29,0.022,116.6
2022-08-27T09:22:03,42.805,6.029,0.007,0.008,-0.011,102.0,101.0,101.0,13.4,1505.2,327.0,-0.8,1.8,2470.999,13.29,0.01,41.2
2022-08-27T09:25:03,42.805,6.029,-0.006,0.004,-0.027,100.0,103.0,102.0,13.3,1505.2,329.4,-0.8,1.8,2471.013,13.29,0.007,303.7
2022-08-27T09:28:03,42.805,6.029,0.0,-0.008,-0.032,102.0,100.0,100.0,13.4,1505.2,318.8,-0.8,1.9,2470.949,13.29,0.008,180.0
2022-08-27T09:31:03,42.805,6.029,0.008,-0.021,-0.003,102.0,101.0,100.0,13.3,1505.2,330.0,-0.7,1.8,2470.91,13.29,0.022,159.1
2022-08-27T09:34:03,42.805,6.029,0.022,-0.028,-0.076,101.0,101.0,100.0,13.3,1505.2,324.6,-0.8,1.8,2470.946,13.29,0.035,141.8
2022-08-27T09:37:03,42.805,6.029,0.017,0.008,0.003,101.0,103.0,101.0,13.4,1505.2,324.6,-0.7,1.8,2470.966,13.29,0.018,64.8
2022-08-27T09:40:03,42.805,6.029,0.011,-0.001,-0.011,101.0,101.0,101.0,13.4,1505.2,330.8,-0.8,1.8,2470.922,13.29,0.011,95.2
2022-08-27T09:43:03,42.805,6.029,0.011,-0.032,-0.042,101.0,101.0,100.0,13.4,1505.2,330.3,-0.8,1.8,2470.936,13.29,0.033,161.0
2022-08-27T09:46:03,42.805,6.029,0.029,0.003,-0.005,101.0,100.0,101.0,13.3,1505.2,333.6,-0.8,1.8,2470.962,13.29,0.029,84.1
2022-08-27T09:49:03,42.805,6.029,0.0,-0.001,-0.017,101.0,101.0,101.0,13.4,1505.2,332.0,-0.7,1.8,2470.916,13.29,0.001,180.0
2022-08-27T09:52:03,42.805,6.029,0.001,0.004,-0.019,102.0,101.0,100.0,13.4,1505.2,325.5,-0.8,1.8,2470.948,13.29,0.004,14.0
2022-08-27T09:55:03,42.805,6.029,0.005,-0.008,-0.022,104.0,101.0,100.0,13.4,1505.2,317.6,-0.8,1.8,2470.93,13.29,0.009,148.0
2022-08-27T09:58:03,42.805,6.029,0.003,0.022,-0.002,102.0,101.0,101.0,13.3,1505.2,332.3,-0.8,1.9,2470.924,13.29,0.022,7.8
2022-08-27T10:04:03,42.805,6.029,-0.01,0.0,0.016,102.0,100.0,100.0,13.3,1505.2,324.6,-0.7,1.8,2470.957,13.29,0.01,270.0